TimeEST,TemperatureF,Dew PointF,Humidity,Sea Level PressureIn,VisibilityMPH,Wind Direction,Wind SpeedMPH,Gust SpeedMPH,PrecipitationIn,Events,Conditions,WindDirDegrees,DateUTC
12:51 AM,6.1,3.0,87,30.25,10.0,Calm,Calm,-,N/A,,Clear,0,2011-12-19 05:51:00
1:51 AM,5.0,1.9,87,30.24,10.0,Calm,Calm,-,N/A,,Clear,0,2011-12-19 06:51:00
2:51 AM,6.1,3.0,87,30.24,10.0,Calm,Calm,-,N/A,,Scattered Clouds,0,2011-12-19 07:51:00
3:51 AM,8.1,3.9,83,30.20,10.0,Calm,Calm,-,N/A,,Overcast,0,2011-12-19 08:51:00
4:51 AM,8.1,5.0,87,30.17,10.0,Calm,Calm,-,N/A,,Clear,0,2011-12-19 09:51:00
5:51 AM,10.0,5.0,80,30.15,10.0,NNE,3.5,-,N/A,,Clear,30,2011-12-19 10:51:00
6:51 AM,15.1,7.0,70,30.13,10.0,South,4.6,-,N/A,,Mostly Cloudy,180,2011-12-19 11:51:00
7:51 AM,18.0,8.1,65,30.09,10.0,South,12.7,-,N/A,,Overcast,180,2011-12-19 12:51:00
8:51 AM,19.9,9.0,62,30.05,10.0,SSE,4.6,-,N/A,,Mostly Cloudy,150,2011-12-19 13:51:00
9:51 AM,23.0,12.9,65,30.01,10.0,South,5.8,-,N/A,,Mostly Cloudy,170,2011-12-19 14:51:00
10:51 AM,30.0,17.1,59,29.94,10.0,South,9.2,17.3,N/A,,Overcast,190,2011-12-19 15:51:00
11:51 AM,33.1,19.9,59,29.88,10.0,South,8.1,18.4,N/A,,Overcast,180,2011-12-19 16:51:00
12:51 PM,37.4,23.0,56,29.78,10.0,SSW,13.8,25.3,N/A,,Mostly Cloudy,200,2011-12-19 17:51:00
1:51 PM,37.4,24.8,60,29.76,10.0,South,15.0,-,N/A,,Overcast,170,2011-12-19 18:51:00
2:51 PM,37.9,27.0,65,29.83,10.0,South,6.9,-,N/A,,Overcast,190,2011-12-19 19:51:00
3:51 PM,39.0,27.0,62,29.84,10.0,SSW,4.6,-,N/A,,Overcast,210,2011-12-19 20:51:00
4:51 PM,41.0,28.0,60,29.84,10.0,SW,11.5,20.7,N/A,,Overcast,230,2011-12-19 21:51:00
5:51 PM,41.0,28.9,62,29.83,10.0,West,6.9,-,N/A,,Overcast,260,2011-12-19 22:51:00
6:51 PM,41.0,30.0,65,29.83,10.0,SW,10.4,17.3,N/A,,Overcast,230,2011-12-19 23:51:00
7:51 PM,39.9,30.9,70,29.83,10.0,WSW,6.9,18.4,N/A,,Overcast,250,2011-12-20 00:51:00
8:01 PM,39.2,32.0,75,29.79,10.0,West,9.2,-,N/A,,Overcast,260,2011-12-20 01:01:00
8:51 PM,39.9,32.0,73,29.83,10.0,WSW,11.5,20.7,0.00,,Overcast,240,2011-12-20 01:51:00
9:32 PM,39.2,32.0,75,29.78,10.0,WSW,6.9,16.1,0.00,,Overcast,240,2011-12-20 02:32:00
9:51 PM,39.0,32.0,76,29.83,10.0,WSW,5.8,-,0.00,,Overcast,240,2011-12-20 02:51:00
10:40 PM,35.6,33.8,93,29.81,5.0,WNW,9.2,20.7,0.04,Rain,Light Rain,300,2011-12-20 03:40:00
10:48 PM,35.6,33.8,93,29.82,10.0,West,6.9,-,0.04,Rain,Light Rain,280,2011-12-20 03:48:00
10:51 PM,35.6,33.8,93,29.82,10.0,WNW,5.8,-,N/A,,Overcast,290,2011-12-20 03:51:00
11:11 PM,35.6,33.8,93,29.84,6.0,NW,11.5,31.1,0.00,Snow,Light Snow,310,2011-12-20 04:11:00
11:20 PM,35.6,33.8,93,29.84,9.0,NW,8.1,20.7,0.00,,Overcast,320,2011-12-20 04:20:00
11:39 PM,33.8,32.0,93,29.85,10.0,NW,6.9,-,0.00,,Overcast,310,2011-12-20 04:39:00
11:51 PM,34.0,30.9,89,29.90,10.0,NW,10.4,19.6,0.00,,Overcast,310,2011-12-20 04:51:00